This demonstration page uses our WeatherBlox Daily Observations layout. Learn more.

Left ArrowRight Arrow

Hourly Observations for March 26, 2018

Temp ( °F °C ) Dew Point ( °F °C ) Humidity (%) Winds ( mph kmh ) Pressure ( in mb ) Visibility ( mi km ) Precip ( " mm )
12:54 am 00:54 Cloudy 39 3.9 35 1.7 86 86 ESE 12 19 30.04 1017 8 13 0.00 0.00
1:54 am 01:54 Cloudy 39 3.9 35 1.7 86 86 ESE 9 15 30.02 1017 8 13 0.00 0.00
3:54 am 03:54 Cloudy 40 4.4 35 1.7 83 83 E 7 11 29.98 1015 8 13 0.00 0.00
4:54 am 04:54 Cloudy 39 3.9 36 2.2 89 89 NE 14 22 29.91 1013 7 11 0.00 0.00
5:27 am 05:27 Cloudy 39 3.9 36 2.2 89 89 ENE 15 24 29.88 1012 7 11 0.00 0.00
5:50 am 05:50 Cloudy with Light Rain 39 4 36 2 87 87 WNW 14 22 30.00 1016 7 11 0.00 0.03
5:54 am 05:54 Cloudy with Nearby Thunderstorms 40 4.4 37 2.8 89 89 NW 12 19 29.97 1015 6 10 0.00 0.03
6:06 am 06:06 Cloudy with Nearby Thunderstorms 39 3.9 37 2.8 93 93 NW 13 20 30.00 1016 4 6 0.04 1.02
6:15 am 06:15 Cloudy with Thunderstorms 39 3.9 37 2.8 93 93 NW 10 17 30.00 1016 3 4 0.07 1.78
6:23 am 06:23 Cloudy with Strong Thunderstorms 39 3.9 37 2.8 93 93 NE 17 28 29.94 1014 2 3 0.11 2.79
6:30 am 06:30 Cloudy with Nearby Thunderstorms 39 3.9 37 2.8 93 93 ENE 22 35 29.91 1013 2 3 0.17 4.32
6:36 am 06:36 Cloudy with Nearby Thunderstorms 39 3.9 37 2.8 93 93 E 15 24 29.91 1013 3 5 0.17 4.32
6:52 am 06:52 Cloudy with Light Rain 39 4 37 3 93 93 E 6 9 29.94 1014 6 10 0.18 4.57
6:54 am 06:54 Cloudy with Light Rain 39 3.9 38 3.3 96 96 VRB 6 9 29.93 1014 6 10 0.18 4.57
7:02 am 07:02 Cloudy with Thunderstorms 39 3.9 38 3.3 96 96 Calm 29.97 1015 6 10 0.00 0.03
7:09 am 07:09 Cloudy with Thunderstorms 39 3.9 37 2.8 93 93 NNW 5 7 29.97 1015 7 11 0.00 0.03
7:17 am 07:17 Cloudy with Light Rain 39 3.9 37 2.8 93 93 E 7 11 29.97 1015 7 11 0.00 0.03
7:25 am 07:25 Cloudy with Nearby Thunderstorms 39 3.9 37 2.8 93 93 ENE 8 13 29.97 1015 4 6 0.03 0.76
7:40 am 07:40 Cloudy with Rain 39 3.9 38 3.3 96 96 NNE 6 9 29.97 1015 4 6 0.05 1.27
7:49 am 07:49 Cloudy with Light Rain 39 4 37 3 93 93 ENE 7 11 29.97 1015 4 6 0.06 1.52
7:54 am 07:54 Cloudy with Light Rain 39 3.9 38 3.3 96 96 ENE 8 13 29.94 1014 4 6 0.06 1.52
8:23 am 08:23 Cloudy with Light Rain 40 4.4 38 3.3 93 93 E 3 6 30.00 1016 3 4 0.01 0.25
8:28 am 08:28 Cloudy with Rain 40 4.4 38 3.3 93 93 ENE 5 7 30.00 1016 2 2 0.02 0.51
8:35 am 08:35 Cloudy with Light Rain 40 4.4 38 3.3 93 93 ENE 8 13 29.97 1015 2 2 0.04 1.02
8:54 am 08:54 Cloudy with Light Rain 40 4.4 39 3.9 97 97 ENE 9 15 29.95 1014 2 2 0.05 1.27
8:57 am 08:57 Cloudy with Mist and Fog 40 4.4 39 3.9 97 97 ENE 12 19 29.97 1015 2 2 0.00 0.03
9:06 am 09:06 Cloudy with Mist and Fog 40 4.4 38 3.3 93 93 E 8 13 29.97 1015 2 2 0.00 0.03
9:54 am 09:54 Cloudy with Mist and Fog 39 3.9 38 3.3 96 96 E 6 9 29.94 1014 2 3 0.00 0.03
10:04 am 10:04 Cloudy with Mist and Fog 39 3.9 38 3.3 96 96 ESE 9 15 29.97 1015 3 5 0.00 0.00
10:54 am 10:54 Cloudy with Mist and Fog 40 4.4 38 3.3 93 93 NE 6 9 29.95 1014 3 5 0.00 0.00
11:19 am 11:19 Cloudy with Mist and Fog 40 4.4 38 3.3 93 93 NNE 6 9 29.97 1015 2 3 0.00 0.00
11:54 am 11:54 Cloudy with Mist and Fog 40 4.4 38 3.3 93 93 E 7 11 29.94 1014 3 5 0.00 0.00
12:40 pm 12:40 Cloudy with Mist and Fog 40 4.4 39 3.9 97 97 NNE 7 11 29.97 1015 3 4 0.00 0.00
12:54 pm 12:54 Cloudy with Mist and Fog 40 4.4 39 3.9 97 97 NNE 9 15 29.94 1014 2 3 0.00 0.00
1:11 pm 13:11 Cloudy with Mist and Fog 40 4.4 39 3.9 97 97 NNE 8 13 29.97 1015 2 3 0.00 0.00
1:19 pm 13:19 Cloudy with Mist and Fog 41 5 39 3.9 93 93 NNE 8 13 29.97 1015 2 3 0.00 0.00
1:54 pm 13:54 Cloudy with Mist and Fog 41 5 39 3.9 93 93 NNE 12 19 29.92 1013 2 3 0.00 0.00
2:54 pm 14:54 Cloudy with Mist and Fog 41 5 39 3.9 93 93 N 9 15 29.93 1013 3 4 0.00 0.00
3:54 pm 15:54 Cloudy with Mist and Fog 41 5 39 3.9 93 93 NNE 9 15 29.92 1013 3 4 0.00 0.00
4:25 pm 16:25 Cloudy with Mist and Fog 41 5 39 3.9 93 93 N 9 15 29.94 1014 2 2 0.00 0.00
4:42 pm 16:42 Cloudy with Mist and Fog 41 5 39 3.9 93 93 N 7 11 29.94 1014 2 3 0.00 0.00
4:54 pm 16:54 Cloudy with Mist and Fog 41 5 40 4.4 96 96 NNE 7 11 29.93 1014 2 3 0.00 0.00
5:54 pm 17:54 Cloudy with Mist and Fog 41 5 39 3.9 93 93 N 13 20 29.93 1014 2 3 0.00 0.00
6:02 pm 18:02 Cloudy with Mist and Fog 41 5 39 3.9 93 93 N 10 17 29.94 1014 3 5 0.00 0.00
6:10 pm 18:10 Cloudy with Mist and Fog 40 4.4 39 3.9 97 97 N 10 17 29.94 1014 3 4 0.00 0.00
6:54 pm 18:54 Cloudy with Mist and Fog 40 4.4 39 3.9 97 97 N 9 15 29.96 1014 5 8 0.00 0.00
7:54 pm 19:54 Cloudy with Mist and Fog 40 4.4 39 3.9 97 97 N 7 11 29.99 1016 5 8 0.00 0.00
8:20 pm 20:20 Cloudy with Mist and Fog 40 4.4 38 3.3 93 93 N 9 15 30.00 1016 6 10 0.00 0.00
8:40 pm 20:40 Cloudy 40 4.4 38 3.3 93 93 N 9 15 30.03 1017 7 11 0.00 0.00
8:54 pm 20:54 Cloudy with Mist and Fog 40 4.4 38 3.3 93 93 N 8 13 30.01 1016 6 10 0.00 0.00
9:39 pm 21:39 Cloudy with Mist and Fog 40 4.4 38 3.3 93 93 N 7 11 30.03 1017 6 10 0.00 0.00
9:54 pm 21:54 Cloudy 40 4.4 38 3.3 93 93 N 7 11 30.04 1017 7 11 0.00 0.00
10:31 pm 22:31 Cloudy 40 4.4 38 3.3 93 93 NNW 9 15 30.06 1018 8 13 0.00 0.00
10:54 pm 22:54 Cloudy 40 4.4 38 3.3 93 93 N 8 13 30.04 1017 8 13 0.00 0.00
11:54 pm 23:54 Cloudy 40 4.4 38 3.3 93 93 NNW 6 9 30.04 1017 7 11 0.00 0.00

Powered by AerisWeather